GW3580 Weather Reports


time (UTC)temp
C
wind
direction
speed
KPH
gust
KPH
rain 1hr
cm
rain 24hr
cm
rain mn
cm
humidity
%
barometer
mb
20260901175831 21 197 0.0 1.6 0.00 0.00 0.00 46 1015.8
20260901175325 21 243 6.4 9.7 0.00 0.00 0.00 46 1015.6
20260901174820 21 239 4.8 6.4 0.00 0.00 0.00 47 1015.7
20260901174316 20 250 0.0 1.6 0.00 0.00 0.00 49 1015.6
20260901173811 20 254 6.4 8.0 0.00 0.00 0.00 46 1015.6
20260901173306 20 233 8.0 12.9 0.00 0.00 0.00 48 1015.4
20260901172803 20 244 3.2 6.4 0.00 0.00 0.00 51 1015.7
20260901172304 20 242 4.8 6.4 0.00 0.00 0.00 49 1015.4
20260901171800 20 241 8.0 11.3 0.00 0.00 0.00 50 1015.3
20260901171259 20 277 8.0 9.7 0.00 0.00 0.00 50 1015.3
20260901170759 20 144 1.6 1.6 0.00 0.00 0.00 50 1015.6
20260901170253 20 269 1.6 1.6 0.00 0.00 0.00 51 1015.5
20260901165752 20 110 3.2 3.2 0.00 0.00 0.00 50 1015.5
20260901165247 19 243 1.6 3.2 0.00 0.00 0.00 51 1015.6
20260901164743 18 250 4.8 8.0 0.00 0.00 0.00 53 1015.4
20260901164239 18 251 8.0 9.7 0.00 0.00 0.00 53 1015.2
20260901163733 18 249 6.4 8.0 0.00 0.00 0.00 53 1015.6
20260901163232 18 245 3.2 6.4 0.00 0.00 0.00 55 1015.2
20260901162728 18 261 11.3 11.3 0.00 0.00 0.00 54 1015.1
20260901162227 18 158 1.6 3.2 0.00 0.00 0.00 55 1015.2
20260901161726 18 46 1.6 3.2 0.00 0.00 0.00 55 1015.3
20260901161221 18 12 1.6 1.6 0.00 0.00 0.00 57 1015.0
20260901160717 17 18 3.2 6.4 0.00 0.00 0.00 57 1015.1
20260901160212 17 230 3.2 3.2 0.00 0.00 0.00 58 1014.9
20260901155711 17 161 1.6 1.6 0.00 0.00 0.00 59 1014.9
20260901155207 17 192 1.6 1.6 0.00 0.00 0.00 59 1014.6
20260901154702 17 207 4.8 6.4 0.00 0.00 0.00 60 1014.5
20260901154156 17 82 1.6 1.6 0.00 0.00 0.00 61 1014.8
20260901153652 16 275 3.2 3.2 0.00 0.00 0.00 62 1014.5
20260901153151 16 241 6.4 8.0 0.00 0.00 0.00 62 1014.6
20260901152646 16 276 1.6 3.2 0.00 0.00 0.00 63 1014.6
20260901152144 16 250 3.2 3.2 0.00 0.00 0.00 63 1014.6
20260901151641 16 19 1.6 3.2 0.00 0.00 0.00 64 1014.5
20260901151140 15 306 3.2 3.2 0.00 0.00 0.00 65 1014.6
20260901150639 15 121 1.6 1.6 0.00 0.00 0.00 66 1014.5
20260901150132 15 150 3.2 3.2 0.00 0.00 0.00 67 1014.5
20260901145630 15 193 3.2 3.2 0.00 0.00 0.00 68 1014.6
20260901145130 15 261 1.6 3.2 0.00 0.00 0.00 68 1014.4
20260901144626 15 233 1.6 1.6 0.00 0.00 0.00 69 1014.4
20260901144121 15 144 1.6 1.6 0.00 0.00 0.00 70 1014.5
20260901143616 15 251 1.6 3.2 0.00 0.00 0.00 70 1014.7
20260901143112 14 12 1.6 3.2 0.00 0.00 0.00 71 1014.3
20260901142608 13 36 0.0 0.0 0.00 0.00 0.00 72 1014.3
20260901142107 13 258 3.2 6.4 0.00 0.00 0.00 73 1014.2
20260901141602 13 58 0.0 0.0 0.00 0.00 0.00 73 1014.3
20260901141057 13 261 3.2 3.2 0.00 0.00 0.00 74 1013.9
20260901140555 13 269 3.2 3.2 0.00 0.00 0.00 74 1014.0
20260901140055 13 38 0.0 0.0 0.00 0.00 0.00 75 1013.9
20260901135555 13 266 1.6 3.2 0.00 0.00 0.00 74 1013.9
20260901135050 13 276 0.0 1.6 0.00 0.00 0.00 74 1013.8
20260901134547 13 247 4.8 6.4 0.00 0.00 0.00 74 1013.9
20260901134047 13 271 4.8 6.4 0.00 0.00 0.00 74 1013.8
20260901133546 13 280 4.8 9.7 0.00 0.00 0.00 74 1013.8
20260901133044 13 252 3.2 3.2 0.00 0.00 0.00 74 1013.8
20260901132539 13 254 6.4 8.0 0.00 0.00 0.00 74 1013.7
20260901132038 13 264 3.2 3.2 0.00 0.00 0.00 74 1013.5
20260901131532 13 281 0.0 1.6 0.00 0.00 0.00 74 1013.3
20260901131023 13 249 1.6 1.6 0.00 0.00 0.00 73 1013.3
20260901130522 13 267 4.8 6.4 0.00 0.00 0.00 73 1013.1
20260901130021 13 248 3.2 3.2 0.00 0.00 0.00 73 1013.1
20260901125520 14 258 3.2 6.4 0.00 0.00 0.00 73 1012.9
20260901125015 14 237 1.6 3.2 0.00 0.00 0.00 72 1012.8
20260901124509 14 246 3.2 3.2 0.00 0.00 0.00 72 1013.1
20260901124004 14 288 3.2 3.2 0.00 0.00 0.00 72 1012.6
20260901123459 14 280 1.6 1.6 0.00 0.00 0.00 72 1012.8
20260901122957 14 147 0.0 1.6 0.00 0.00 0.00 72 1012.8
20260901122456 14 353 1.6 1.6 0.00 0.00 0.00 72 1012.6
20260901121951 14 14 6.4 9.7 0.00 0.00 0.00 72 1012.7
20260901121446 14 66 0.0 1.6 0.00 0.00 0.00 72 1012.8
20260901120941 14 14 0.0 0.0 0.00 0.00 0.00 71 1012.8
20260901120441 14 124 0.0 0.0 0.00 0.00 0.00 72 1012.6
20260901115937 15 50 0.0 0.0 0.00 0.00 0.00 72 1013.0
20260901115437 15 200 1.6 1.6 0.00 0.00 0.00 71 1012.8
20260901114934 15 219 1.6 3.2 0.00 0.00 0.00 72 1012.8
20260901114429 14 278 0.0 1.6 0.00 0.00 0.00 71 1013.0
20260901113927 14 339 1.6 1.6 0.00 0.00 0.00 71 1012.7
20260901113426 14 33 0.0 0.0 0.00 0.00 0.00 71 1012.6
20260901112922 14 69 0.0 0.0 0.00 0.00 0.00 71 1012.7
20260901112417 14 58 0.0 1.6 0.00 0.00 0.00 71 1012.6
20260901111912 15 55 0.0 0.0 0.00 0.00 0.00 70 1012.4
20260901111410 15 82 1.6 1.6 0.00 0.00 0.00 70 1012.2
20260901110909 15 57 0.0 1.6 0.00 0.00 0.00 69 1012.4
20260901110405 15 48 0.0 1.6 0.00 0.00 0.00 69 1012.4
20260901105901 15 359 1.6 1.6 0.00 0.00 0.00 69 1012.4
20260901105356 15 16 0.0 0.0 0.00 0.00 0.00 68 1012.4
20260901104852 15 74 0.0 0.0 0.00 0.00 0.00 68 1012.2
20260901104347 15 229 0.0 1.6 0.00 0.00 0.00 68 1012.4
20260901103842 15 256 1.6 3.2 0.00 0.00 0.00 69 1012.3
20260901103337 16 23 1.6 1.6 0.00 0.00 0.00 68 1012.0
20260901102832 16 245 3.2 6.4 0.00 0.00 0.00 67 1012.0
20260901102332 16 243 1.6 3.2 0.00 0.00 0.00 67 1012.1
20260901101827 16 242 3.2 3.2 0.00 0.00 0.00 67 1011.9
20260901101326 16 254 3.2 3.2 0.00 0.00 0.00 67 1012.0
20260901100821 16 249 3.2 3.2 0.00 0.00 0.00 67 1012.0
20260901100316 16 273 4.8 6.4 0.00 0.00 0.00 66 1011.8
20260901095814 16 282 1.6 1.6 0.00 0.00 0.00 66 1011.8
20260901095312 16 270 6.4 8.0 0.00 0.00 0.00 65 1011.6
20260901094807 16 260 1.6 3.2 0.00 0.00 0.00 66 1011.9
20260901094302 16 252 1.6 3.2 0.00 0.00 0.00 66 1011.9
20260901093756 16 230 4.8 6.4 0.00 0.00 0.00 65 1011.8
20260901093255 16 283 4.8 6.4 0.00 0.00 0.00 66 1011.9
20260901092751 16 258 3.2 3.2 0.00 0.00 0.00 66 1012.0
20260901092248 16 261 3.2 3.2 0.00 0.00 0.00 66 1011.8
20260901091742 16 259 6.4 8.0 0.00 0.00 0.00 65 1012.0
20260901091237 16 284 6.4 6.4 0.00 0.00 0.00 66 1011.8
20260901090732 16 262 4.8 6.4 0.00 0.00 0.00 66 1012.0
20260901090227 16 262 3.2 3.2 0.00 0.00 0.00 66 1011.7
20260901085723 17 209 4.8 6.4 0.00 0.00 0.00 66 1011.7
20260901085218 17 271 4.8 6.4 0.00 0.00 0.00 66 1011.9
20260901084715 17 254 3.2 3.2 0.00 0.00 0.00 65 1011.7
20260901084211 17 298 8.0 9.7 0.00 0.00 0.00 65 1011.7
20260901083705 17 226 4.8 6.4 0.00 0.00 0.00 65 1011.7
20260901083204 17 241 3.2 3.2 0.00 0.00 0.00 65 1011.8
20260901082703 17 247 6.4 8.0 0.00 0.00 0.00 64 1011.6
20260901082159 17 246 3.2 6.4 0.00 0.00 0.00 64 1011.7
20260901081655 17 265 3.2 3.2 0.00 0.00 0.00 64 1011.6
20260901081154 17 21 1.6 1.6 0.00 0.00 0.00 64 1011.8
20260901080649 17 348 1.6 3.2 0.00 0.00 0.00 63 1011.6
20260901080148 17 120 3.2 3.2 0.00 0.00 0.00 63 1011.5
20260901075643 17 190 1.6 1.6 0.00 0.00 0.00 63 1011.7
20260901075143 18 252 4.8 6.4 0.00 0.00 0.00 63 1011.4
20260901074642 18 69 0.0 1.6 0.00 0.00 0.00 63 1011.5
20260901074137 18 251 1.6 3.2 0.00 0.00 0.00 62 1011.5
20260901073634 18 219 4.8 6.4 0.00 0.00 0.00 63 1011.6
20260901073129 18 230 3.2 3.2 0.00 0.00 0.00 62 1011.3
20260901072624 18 251 4.8 8.0 0.00 0.00 0.00 63 1011.6
20260901072119 18 256 4.8 8.0 0.00 0.00 0.00 62 1011.2
20260901071614 18 282 1.6 3.2 0.00 0.00 0.00 62 1011.3
20260901071113 18 260 4.8 6.4 0.00 0.00 0.00 62 1011.1
20260901070607 18 243 6.4 8.0 0.00 0.00 0.00 62 1011.2
20260901070103 18 244 4.8 6.4 0.00 0.00 0.00 61 1011.1
20260901065556 18 232 4.8 6.4 0.00 0.00 0.00 61 1010.9
20260901065051 18 228 6.4 8.0 0.00 0.00 0.00 60 1011.0
20260901064549 18 254 3.2 3.2 0.00 0.00 0.00 60 1011.1
20260901064044 19 245 8.0 9.7 0.00 0.00 0.00 59 1011.1
20260901063541 19 249 4.8 8.0 0.00 0.00 0.00 59 1011.0
20260901063037 19 267 4.8 6.4 0.00 0.00 0.00 59 1011.0
20260901062532 19 225 4.8 6.4 0.00 0.00 0.00 59 1010.6
20260901062028 19 233 8.0 9.7 0.00 0.00 0.00 58 1010.6
20260901061524 20 292 8.0 12.9 0.00 0.00 0.00 57 1010.8
20260901061019 20 257 4.8 6.4 0.00 0.00 0.00 57 1010.9
20260901060513 20 267 3.2 3.2 0.00 0.00 0.00 56 1010.5
20260901060008 20 242 4.8 6.4 0.00 0.00 0.00 56 1010.5
20260901055504 20 260 8.0 9.7 0.00 0.00 0.00 55 1010.8
20260901055001 20 217 3.2 6.4 0.00 0.00 0.00 54 1010.6
20260901054457 20 263 4.8 6.4 0.00 0.00 0.00 53 1010.3
20260901053953 20 285 6.4 8.0 0.00 0.00 0.00 53 1010.4
20260901053448 21 300 8.0 9.7 0.00 0.00 0.00 52 1010.2
20260901052943 21 260 9.7 11.3 0.00 0.00 0.00 51 1010.5
20260901052439 21 263 8.0 9.7 0.00 0.00 0.00 51 1010.4
20260901051932 21 262 4.8 8.0 0.00 0.00 0.00 50 1010.4
20260901051428 21 231 9.7 11.3 0.00 0.00 0.00 49 1010.2
20260901050927 21 238 6.4 8.0 0.00 0.00 0.00 49 1010.0
20260901050423 22 273 6.4 6.4 0.00 0.00 0.00 48 1010.2
20260901045922 22 242 8.0 9.7 0.00 0.00 0.00 47 1010.0
20260901045417 22 247 4.8 6.4 0.00 0.00 0.00 46 1010.0
20260901044907 22 242 8.0 9.7 0.00 0.00 0.00 45 1009.8
20260901044403 22 265 8.0 9.7 0.00 0.00 0.00 45 1009.6
20260901043859 22 245 4.8 9.7 0.00 0.00 0.00 45 1009.7
20260901043355 22 248 4.8 6.4 0.00 0.00 0.00 45 1009.6
20260901042855 22 297 1.6 1.6 0.00 0.00 0.00 44 1009.5
20260901042349 22 248 4.8 6.4 0.00 0.00 0.00 43 1009.5
20260901041844 23 259 3.2 3.2 0.00 0.00 0.00 42 1009.3
20260901041339 23 250 1.6 3.2 0.00 0.00 0.00 42 1009.3
20260901040834 23 246 3.2 3.2 0.00 0.00 0.00 41 1009.4
20260901040333 23 282 3.2 6.4 0.00 0.00 0.00 40 1009.3
20260901035832 23 254 3.2 6.4 0.00 0.00 0.00 39 1009.1
20260901035331 23 239 4.8 6.4 0.00 0.00 0.00 38 1009.3
20260901034830 24 215 1.6 3.2 0.00 0.00 0.00 39 1009.2
20260901034325 24 229 3.2 3.2 0.00 0.00 0.00 39 1008.9
20260901033820 24 267 4.8 6.4 0.00 0.00 0.00 39 1008.9
20260901033319 25 261 1.6 1.6 0.00 0.00 0.00 40 1008.9
20260901032818 25 245 3.2 3.2 0.00 0.00 0.00 38 1008.7
20260901032317 25 274 3.2 3.2 0.00 0.00 0.00 38 1008.9
20260901031812 25 234 4.8 6.4 0.00 0.00 0.00 37 1008.7
20260901031308 25 247 8.0 9.7 0.00 0.00 0.00 36 1008.7
20260901030808 25 261 4.8 6.4 0.00 0.00 0.00 36 1008.4
20260901030303 26 274 8.0 9.7 0.00 0.00 0.00 36 1008.6
20260901025802 26 273 6.4 8.0 0.00 0.00 0.00 37 1008.5
20260901025257 26 274 6.4 8.0 0.00 0.00 0.00 37 1008.5
20260901024752 26 278 3.2 3.2 0.00 0.00 0.00 39 1008.6
20260901024251 26 128 0.0 0.0 0.00 0.00 0.00 38 1008.4
20260901023749 27 243 1.6 1.6 0.00 0.00 0.00 38 1008.0
20260901023244 27 248 1.6 1.6 0.00 0.00 0.00 36 1008.4
20260901022740 27 273 3.2 3.2 0.00 0.00 0.00 36 1008.3
20260901022235 27 246 1.6 1.6 0.00 0.00 0.00 36 1008.3
20260901021730 28 254 1.6 1.6 0.00 0.00 0.00 34 1008.2
20260901021226 28 247 1.6 1.6 0.00 0.00 0.00 33 1008.1
20260901020721 28 271 1.6 1.6 0.00 0.00 0.00 33 1008.1
20260901020217 28 230 3.2 3.2 0.00 0.00 0.00 32 1008.1
20260901015711 29 249 1.6 3.2 0.00 0.00 0.00 31 1008.1
20260901015207 30 237 3.2 3.2 0.00 0.00 0.00 30 1008.0
20260901014706 30 271 8.0 9.7 0.00 0.00 0.00 29 1008.0
20260901014203 30 251 12.9 17.7 0.00 0.00 0.00 28 1008.0
20260901013658 30 261 8.0 9.7 0.00 0.00 0.00 27 1008.1
20260901013154 31 261 6.4 8.0 0.00 0.00 0.00 28 1008.0
20260901012649 31 279 4.8 8.0 0.00 0.00 0.00 27 1007.9
20260901012144 31 271 3.2 3.2 0.00 0.00 0.00 26 1007.8
20260901011640 31 259 3.2 3.2 0.00 0.00 0.00 25 1007.9
20260901011139 31 254 4.8 6.4 0.00 0.00 0.00 27 1007.9
20260901010633 32 261 3.2 3.2 0.00 0.00 0.00 26 1008.2
20260901010132 32 39 0.0 0.0 0.00 0.00 0.00 24 1007.8
20260901005627 32 39 1.6 1.6 0.00 0.00 0.00 24 1007.9
20260901005122 32 49 0.0 1.6 0.00 0.00 0.00 25 1008.0
20260901004621 32 263 4.8 6.4 0.00 0.00 0.00 24 1008.1
20260901004116 32 262 0.0 1.6 0.00 0.00 0.00 26 1008.1
20260901003611 32 301 1.6 1.6 0.00 0.00 0.00 25 1007.9
20260901003109 32 255 4.8 6.4 0.00 0.00 0.00 23 1008.1
20260901002604 32 261 6.4 8.0 0.00 0.00 0.00 24 1008.1
20260901002059 32 33 0.0 0.0 0.00 0.00 0.00 22 1008.2
20260901001554 32 271 4.8 6.4 0.00 0.00 0.00 22 1008.2
20260901001049 32 232 4.8 8.0 0.00 0.00 0.00 21 1008.4
20260901000544 33 248 4.8 6.4 0.00 0.00 0.00 21 1008.4
20260901000039 32 259 3.2 3.2 0.00 0.00 0.00 21 1008.3
20260831235532 32 281 8.0 11.3 0.00 0.00 0.00 20 1008.4
20260831235028 32 274 4.8 6.4 0.00 0.00 0.00 20 1008.4
20260831234523 32 267 4.8 6.4 0.00 0.00 0.00 21 1008.5
20260831234019 32 249 6.4 8.0 0.00 0.00 0.00 20 1008.2
20260831233514 33 296 4.8 6.4 0.00 0.00 0.00 20 1008.4
20260831233009 33 45 1.6 1.6 0.00 0.00 0.00 21 1008.5
20260831232504 33 325 0.0 0.0 0.00 0.00 0.00 21 1008.3
20260831232000 33 20 0.0 1.6 0.00 0.00 0.00 21 1008.5
20260831231457 33 50 1.6 3.2 0.00 0.00 0.00 21 1008.5
20260831230952 33 254 3.2 3.2 0.00 0.00 0.00 21 1008.5
20260831230447 32 359 1.6 1.6 0.00 0.00 0.00 21 1008.5
20260831225946 33 243 4.8 6.4 0.00 0.00 0.00 20 1008.6
20260831225443 33 343 1.6 1.6 0.00 0.00 0.00 20 1008.9
20260831224937 32 223 0.0 0.0 0.00 0.00 0.00 20 1008.8
20260831224437 32 234 4.8 6.4 0.00 0.00 0.00 21 1008.8
20260831223932 33 251 1.6 1.6 0.00 0.00 0.00 19 1008.9
20260831223427 32 157 1.6 1.6 0.00 0.00 0.00 20 1009.1
20260831222924 32 266 4.8 8.0 0.00 0.00 0.00 20 1009.2
20260831222420 32 273 3.2 3.2 0.00 0.00 0.00 21 1009.5
20260831221915 32 261 3.2 3.2 0.00 0.00 0.00 20 1009.2
20260831221411 32 335 4.8 6.4 0.00 0.00 0.00 20 1009.3
20260831220906 32 241 6.4 8.0 0.00 0.00 0.00 23 1009.5
20260831220401 32 84 4.8 6.4 0.00 0.00 0.00 20 1009.4
20260831215856 32 271 3.2 3.2 0.00 0.00 0.00 20 1009.6
20260831215352 32 353 1.6 3.2 0.00 0.00 0.00 22 1009.5
20260831214848 31 151 4.8 6.4 0.00 0.00 0.00 22 1009.6
20260831214345 31 266 6.4 8.0 0.00 0.00 0.00 21 1009.6
20260831213846 32 277 8.0 9.7 0.00 0.00 0.00 22 1009.7
20260831213342 31 47 0.0 1.6 0.00 0.00 0.00 24 1009.7
20260831212837 31 333 3.2 3.2 0.00 0.00 0.00 22 1009.8
20260831212334 31 247 1.6 1.6 0.00 0.00 0.00 24 1009.9
20260831211832 31 246 3.2 6.4 0.00 0.00 0.00 23 1010.0
20260831211328 31 319 3.2 3.2 0.00 0.00 0.00 25 1010.1
20260831210827 31 296 1.6 1.6 0.00 0.00 0.00 25 1010.1
20260831210323 31 225 0.0 1.6 0.00 0.00 0.00 25 1010.2
20260831205818 30 357 0.0 0.0 0.00 0.00 0.00 23 1010.1
20260831205314 30 267 4.8 6.4 0.00 0.00 0.00 23 1010.2
20260831204813 30 281 8.0 9.7 0.00 0.00 0.00 23 1010.3
20260831204313 30 308 3.2 3.2 0.00 0.00 0.00 24 1010.2
20260831203812 30 263 6.4 8.0 0.00 0.00 0.00 25 1010.2
20260831203307 30 219 1.6 1.6 0.00 0.00 0.00 28 1010.3
20260831202805 30 334 1.6 1.6 0.00 0.00 0.00 28 1010.4
20260831202300 30 107 1.6 1.6 0.00 0.00 0.00 29 1010.6
20260831201754 30 257 1.6 1.6 0.00 0.00 0.00 26 1010.8
20260831201253 30 247 4.8 8.0 0.00 0.00 0.00 29 1010.8
20260831200749 30 255 4.8 8.0 0.00 0.00 0.00 27 1010.9
20260831200244 30 349 1.6 1.6 0.00 0.00 0.00 29 1010.9
20260831195739 29 310 1.6 1.6 0.00 0.00 0.00 30 1010.9
20260831195235 29 256 4.8 6.4 0.00 0.00 0.00 29 1011.0
20260831194729 30 21 1.6 1.6 0.00 0.00 0.00 30 1011.1
20260831194226 29 39 3.2 3.2 0.00 0.00 0.00 31 1011.0
20260831193719 28 249 6.4 8.0 0.00 0.00 0.00 31 1011.0
20260831193215 28 307 1.6 3.2 0.00 0.00 0.00 31 1011.1
20260831192710 28 229 1.6 1.6 0.00 0.00 0.00 31 1011.2
20260831192205 28 224 3.2 3.2 0.00 0.00 0.00 31 1011.1
20260831191701 28 225 1.6 1.6 0.00 0.00 0.00 32 1011.1
20260831191157 27 243 6.4 8.0 0.00 0.00 0.00 32 1011.4
20260831190652 27 234 1.6 1.6 0.00 0.00 0.00 33 1011.4
20260831190151 27 27 1.6 3.2 0.00 0.00 0.00 33 1011.4
20260831185646 26 337 3.2 3.2 0.00 0.00 0.00 34 1011.3
20260831185142 26 258 3.2 3.2 0.00 0.00 0.00 34 1011.2
20260831184641 26 234 4.8 6.4 0.00 0.00 0.00 34 1011.5
20260831184137 26 255 3.2 6.4 0.00 0.00 0.00 35 1011.7
20260831183637 26 271 3.2 3.2 0.00 0.00 0.00 35 1011.5
20260831183136 26 250 3.2 6.4 0.00 0.00 0.00 35 1011.3
20260831182635 26 234 0.0 1.6 0.00 0.00 0.00 36 1011.6
20260831182131 26 254 6.4 6.4 0.00 0.00 0.00 35 1011.5
20260831181626 26 19 1.6 3.2 0.00 0.00 0.00 36 1011.4
20260831181125 26 244 3.2 3.2 0.00 0.00 0.00 35 1011.6
20260831180621 25 218 1.6 1.6 0.00 0.00 0.00 38 1011.4
20260831180116 25 264 1.6 1.6 0.00 0.00 0.00 37 1011.5